STARLINK-31905, 59896

Orbit data source: Space-Track

STARLINK-31905, 59896 is a payload satellite owned by SpaceX/Seattle (US) in LEO that was launched on Tue, 28 May 2024 UTC via an FALCON 9 launch vehicle from the Air Force Eastern Test Range (AFETR). Payload-class satellites include a variety of spacecraft equipped with specific instruments for various scientific and technological missions. These include communications satellites like Starlink; space stations such as the ISS; scientific satellites like the Hubble; Earth observation satellites from companies like Planet Labs, Umbra, and HawkEye 360; GPS; miniature CubeSats for education and research; and military/defense satellites.

Loading next visibility...
Identifier
59896, 2024-100M
Orbit
LEO
Country
Flag of USUS
Related business
Manufacturer
SpaceX/Seattle
Mission
Operational spacecraft
Bus & Motor
STARLINK V2M, Unknown motor
Mass
730 kg wet, ~700 kg dry
Launch date (UTC)
2024-05-28 (1 year ago)
Launch vehicle
FALCON 9
Launch site
Air Force Eastern Test Range (AFETR)
Object type
Payload
Rocket body
Debris
Shape & HBR
Unknown
Radar Cross Section
Large (>1 m²)

Expand to show TLE details & history
Last TLE update: 1 day ago

TLE from 1 day ago
0 STARLINK-31905
1 59896U 24100M   25259.61784743  .00001041  00000-0  47335-4 0  9999
2 59896  43.0072  25.1078 0001507 273.7716  86.2963 15.27581722 74571
Epoch: 2025-09-16T14:49Z
TLE epoch observation values (Epoch: 2025-09-16T14:49:42.017Z)
Latitude
-0.00007°
Longitude
166.87709°
Altitude
482.754 km
Speed
7.626 km/s
True Right ascension
01h 40m 25s
True Declination
0° 00' 00"
Sunlit
Object was in full shadow at epoch
Visualization orbit readout
Latitude
Unknown
Longitude
Unknown
Altitude
Unknown
Speed
Unknown
Apparent Right ascension
Unknown
Apparent Declination
Unknown
Sunlit
N/A
Visualization observer readout
Local Sidereal Time
17:34:07
Azimuth
Unknown
Elevation
Unknown
Doppler factor
Unknown
Orbital elements
Apogee altitude
486.022 km
Perigee altitude
483.954 km
Semi-major axis
6,863.125 km
Eccentricity
0.00015
Inclination
43.0072°
RAAN
25.1078°
Arg. of periapsis
273.7716°
True anomaly
86.31353°
Mean anomaly
86.2963°
Eccentric anomaly
86.30492°
Mean motion
3.81734 °/min
Orbital period
94.31 mins
BSTAR
0.000047335
Loading maneuver chart data...
Computing Atmospheric mass density...
Loading historical data...
Loading historical data...
Loading historical data...
Loading historical data...
Loading historical data...
Loading historical data...
Loading historical data...

Documentation

Showing up to 5 results
|